Regional Weather Roundup
Issued by NWS

Home | Current Version | Previous Version | Graphics & Text | Print | Product List | Glossary On
Versions: 1 2 3 4 5 6 7 8 9 10 11 12 13 14 15 16 17 18 19 20 21 22 23 24 25 26 27 28 29 30 31 32 33 34 35 36 37 38 39 40 41 42 43 44 45 46 47 48 49 50
888
ASUS44 KMEG 230110
RWRTN
TENNESSEE HOURLY STATE WEATHER ROUNDUP
NATIONAL WEATHER SERVICE MEMPHIS TN
700 PM CST THU FEB 22 2018

TNZ002-004-019-021-049-052-054-088>092-230200-
WEST TENNESSEE

CITY           SKY/WX    TMP DP  RH WIND       PRES   REMARKS
MEMPHIS INTL   CLOUDY    53  51  93 NE8       30.25F
NWS MEMPHIS      N/A     52 N/A N/A MISG        N/A
JACKSON        FOG       54  54 100 CALM      30.30F VSB 1
DYERSBURG      CLOUDY    52  50  93 NE3       30.31S
COVINGTON      CLOUDY    52  50  93 CALM      30.29F
UNION CITY     CLOUDY    52  50  93 CALM      30.30R
BOLIVAR        FOG       54  54 100 CALM      30.28S VSB 1/4
PARIS          CLOUDY    55  54  94 CALM      30.30S
HUNTINGDON     CLOUDY    55  55 100 CALM      30.31S FOG
LEXINGTON      CLOUDY    55  55 100 CALM      30.30S
SELMER         FOG       57  55  94 NE5       30.28F VSB 1/4
SAVANNAH       FOG       57  57 100 CALM      30.29R VSB 1/2
$$

TNZ008-025-027-028-033-062-065-066-230200-
NORTH MIDDLE TENNESSEE

CITY           SKY/WX    TMP DP  RH WIND       PRES   REMARKS
NASHVILLE      FOG       59  58  96 CALM      30.32R VSB 1/4
PORTLAND       FOG       57  57 100 CALM      30.32R VSB 1/4
CLARKSVILLE    CLOUDY    57  53  86 CALM      30.32R
SMYRNA         FOG       58  58 100 NW5       30.33R VSB 1/8
COOKEVILLE     CLEAR     57  57 100 CALM      30.33S
GALLATIN       FOG       59  59 100 CALM      30.34S VSB 1/4
CROSSVILLE     FAIR      60  59  96 CALM      30.37R
$$

TNZ061-075-076-078-094-096-097-230200-
SOUTH MIDDLE TENNESSEE

CITY           SKY/WX    TMP DP  RH WIND       PRES   REMARKS
FAYETTEVILLE   PTCLDY    64  61  88 SE5       30.31S
TULLAHOMA      PTCLDY    64  59  82 SE5       30.31F
WINCHESTER     CLEAR     64  61  88 S5        30.33S
MCMINNVILLE    CLEAR     61  59  94 CALM      30.33R
COLUMBIA       PTCLDY    61  61 100 NW3       30.29R
SHELBYVILLE    CLEAR     61  61 100 E5        30.31S
$$

TNZ017-018-042-046-047-230200-
NORTHEAST TENNESSEE

CITY           SKY/WX    TMP DP  RH WIND       PRES   REMARKS
TRI CITIES     MOCLDY    65  58  78 CALM      30.36S
ELIZABETHTON   FAIR      63  55  77 NW5       30.38R
$$

TNZ012-013-036-069-073-074-230200-
CENTRAL EAST TENNESSEE

CITY           SKY/WX    TMP DP  RH WIND       PRES   REMARKS
KNOXVILLE      MOCLDY    66  61  84 NW5       30.33R
OAK RIDGE      FAIR      63  63 100 CALM      30.35  FOG
DOWNTOWN KNOXV PTCLDY    63  61  94 CALM      30.34R
GATLINBURG     CLEAR     68  59  73 CALM      30.33S
MORRISTOWN     CLEAR     66  59  77 S3        30.34S
JACKSBORO      MOCLDY    63  61  94 CALM      30.38R
$$

TNZ083-085-099-230200-
SOUTHEAST TENNESSEE

CITY           SKY/WX    TMP DP  RH WIND       PRES   REMARKS
CHATTANOOGA    FAIR      68  60  75 CALM      30.33R
$$

SKY/WX REPORTED AS FAIR MEANS FEW OR NO CLOUDS BELOW
12 THOUSAND FEET.





USA.gov is the U.S. government's official web portal to all federal, state and local government web resources and services.